Home > Weather > Messina > Past weeks

Flag for Italy Weather for the Past 2 Weeks in Messina, Italy

Now
61 °F

Passing clouds.


Feels Like: 61 °F
Forecast: 64 / 71 °F
Wind: 3 mph from Southeast

Location: Reggio Calabria

Current Time: Apr 29, 2016 at 12:28:20 AM

Latest Report: Apr 28, 2016 at 10:50 PM


Visibility: N/A

Pressure: 29.95 "Hg

Humidity: 88%

Dew Point: 57 °F

Location of MessinaLocation

Historic Weather in Messina — Graph

°F

Messina Temperature Yesterday

Maximum temperature yesterday: 70 °F (at 1:50 PM)
Minimum temperature yesterday: 55 °F (at 6:00 AM)
Average temperature yesterday: 63 °F

High & Low Weather Summary for the Past Weeks

 TemperatureHumidityPressure
High73 °F (Apr 23, 1:50 PM)88% (Apr 28, 6:50 AM)30.21 "Hg (Apr 28, 6:50 AM)
Low50 °F (Apr 27, 6:00 AM)33% (Apr 23, 1:50 PM)29.68 "Hg (Apr 24, 2:50 PM)
Average64 °F60%29.97 "Hg
* Reported Apr 13 10:50 PM — Apr 28 10:50 PM, Messina, Weather by CustomWeather, © 2016

Note: Actual official high and low records may vary slightly from our data, if they occured in-between our weather recording intervals... More about our weather records

Advertising

Messina Weather History for the Previous 24 Hours

Scroll right to see more
 ConditionsComfort  
Time TempWeatherWind HumidityBarometerVisibility
10:50 PM
Thu, Apr 28
61 °FPassing clouds.3 mph88%29.95 "HgN/A
9:50 PM61 °FPassing clouds.2 mph88%29.95 "HgN/A
8:50 PM61 °FPassing clouds.3 mph88%29.95 "HgN/A
7:50 PM61 °FPassing clouds.8 mph88%29.95 "HgN/A
6:50 PM61 °FPassing clouds.9 mph88%29.92 "HgN/A
5:50 PM63 °FScattered clouds.13 mph83%29.92 "HgN/A
4:50 PM63 °FPassing clouds.20 mph83%29.92 "HgN/A
3:50 PM64 °FPassing clouds.25 mph83%29.92 "HgN/A
2:50 PM70 °FSunny.24 mph60%29.92 "Hg10 mi
1:50 PM70 °FSunny.17 mph43%29.89 "Hg10 mi
12:50 PM66 °FSunny.18 mph68%29.92 "Hg10 mi
11:50 AM66 °FSunny.18 mph68%29.92 "Hg10 mi
10:50 AM64 °FPassing clouds.12 mph78%29.95 "HgN/A
9:50 AM63 °FScattered clouds.9 mph83%29.95 "Hg5 mi
8:50 AM63 °FPassing clouds.2 mph77%29.95 "HgN/A
6:50 AM55 °FClear.2 mph88%29.95 "Hg10 mi
6:00 AM55 °FClear.2 mph82%29.92 "Hg10 mi
Weather by CustomWeather, © 2016

See weather overviewHow to use our weather pages